Location: Mason Neck State Park
(38.6428°N, 77.1981°W)
Time: 00:51:49
(UTC-04:00)

Daily predictions for brighter satellites

Satellite Brightness Start Highest point End
(mag) Time Altitude Azimuth Time Altitude Azimuth Time Altitude Azimuth
Meteor 1-18 Rocket 4.3 00:03:40 10° NNW 00:09:08 75° WNW 00:09:08 75° WNW
ALOS 2 4.0 00:28:20 35° NNE 00:28:20 35° NNE 00:31:02 10° N
S3M 4.3 00:40:41 10° NNW 00:46:18 55° W 00:46:18 55° W
Cosmos 1697 Rocket 3.9 00:49:13 33° ENE 00:49:13 33° ENE 00:52:40 10° NE
Cosmos 2297 Rocket 2.6 00:43:22 10° NNW 00:48:16 58° NNE 00:48:16 58° NNE
ATLAS CENTAUR R/B 3.9 01:05:54 16° NW 01:05:54 16° NW 01:07:58 10° N
Cosmos 2278 4.2 01:12:16 56° NW 01:12:16 56° NW 01:17:16 10° NNE
Cosmos 2082 4.2 01:06:07 10° NNW 01:10:39 57° NW 01:10:39 57° NW
USA 234 4.2 01:16:48 10° ENE 01:21:03 33° E 01:21:03 33° E
Mayak 0.7 01:24:38 10° N 01:26:48 27° NNW 01:26:48 27° NNW
Cosmos 1745 Rocket 4.5 01:32:55 50° ENE 01:32:55 50° ENE 01:38:27 10° NNE
Cosmos 2227 Rocket 3.5 01:32:44 10° NW 01:36:06 30° WNW 01:36:06 30° WNW
USA 229 DEB 3.7 01:38:23 71° WNW 01:38:42 72° NW 01:45:39 10° NNE
USA 229 3.7 01:38:31 71° WNW 01:38:48 72° NW 01:45:45 10° NNE
Cosmos 407 Rocket 4.3 01:35:06 10° NNW 01:38:55 47° NNW 01:38:55 47° NNW
CZ-2C R/B 4.5 01:38:13 10° NNW 01:41:53 20° WNW 01:42:04 20° WNW
Cosmos 2315 Rocket 4.5 01:36:59 10° NNW 01:42:16 49° WNW 01:42:16 49° WNW
NOSS 3-1 (A) 4.3 01:46:02 37° E 01:46:02 37° E 01:50:37 10° NE
Cosmos 1140 Rocket 4.2 01:41:27 10° N 01:45:42 48° NE 01:45:42 48° NE
Cosmos 2263 Rocket 4.4 01:52:36 10° N 01:56:41 20° NE 02:00:45 10° E
CZ-4B R/B 4.4 02:04:25 14° NNW 02:04:25 14° NNW 02:04:59 10° NNW
Cosmos 2360 Rocket 4.4 02:02:23 13° E 02:02:34 13° E 02:04:58 10° ENE
Cosmos 1980 Rocket 2.4 02:03:42 65° NNW 02:03:42 65° NNW 02:08:39 10° NNE
CZ-4C R/B 3.1 01:56:52 10° NNW 02:04:06 70° NE 02:06:47 44° ESE
BREEZE-M DEB (TANK) 4.5 01:45:41 10° NW 02:06:35 58° SW 02:07:14 57° SW
Cosmos 1238 Rocket 4.1 02:05:06 10° NNW 02:09:20 55° NW 02:09:20 55° NW
Cosmos 1437 Rocket 4.5 02:27:15 33° NE 02:27:15 33° NE 02:29:49 10° NNE
Cosmos 1452 Rocket 4.4 02:28:49 39° NW 02:28:49 39° NW 02:33:19 10° N
NOSS 3-1 (C) 3.4 02:29:04 67° WNW 02:29:15 67° NW 02:35:38 10° NNE
H-2A R/B 4.2 02:26:23 10° N 02:28:35 28° NNW 02:28:35 28° NNW
Cosmos 1697 Rocket 4.1 02:30:56 26° WNW 02:31:29 26° WNW 02:36:09 10° N
Cosmos 2297 Rocket 4.4 02:29:07 10° WNW 02:30:03 13° WNW 02:30:03 13° WNW
USA 81 4.2 02:27:17 10° N 02:32:01 71° N 02:32:01 71° N
Meteor 1-21 4.4 02:29:40 10° N 02:35:14 62° E 02:35:37 60° E
Cosmos 1850 Rocket 4.1 02:36:00 10° NNW 02:40:44 70° NNW 02:40:44 70° NNW
Nadezhda 1 Rocket 4.2 02:35:50 10° NNW 02:41:30 54° W 02:41:30 54° W
Cosmos 1709 Rocket 3.8 02:42:48 79° S 02:43:12 88° E 02:49:20 10° N
SL-16 R/B 2.1 02:44:16 83° ESE 02:44:16 83° ESE 02:49:56 10° NNE
Helios 1A Rocket 4.0 02:44:21 10° N 02:47:07 42° N 02:47:07 42° N
BREEZE M DEB (TANK) 4.1 02:48:29 42° WNW 02:49:34 49° NW 02:52:38 10° NE
Meteor 2-9 Rocket 4.3 02:49:06 64° SE 02:49:40 68° E 02:55:30 10° NNE
ISS -0.6 02:50:21 10° NNW 02:52:18 15° NNE 02:54:16 10° ENE
Cosmos 2322 Rocket 2.1 02:53:11 81° WSW 02:53:23 82° WNW 02:59:07 10° NNE
Cosmos 1110 Rocket 4.0 02:54:55 70° ESE 02:54:55 70° ESE 03:00:02 10° NNE
SL-16 R/B 3.2 02:55:29 25° SE 02:59:01 51° ENE 03:05:03 10° N
Cosmos 1626 Rocket 4.5 02:58:41 10° NNW 03:01:42 40° NW 03:01:42 40° NW
Cosmos 1666 4.4 03:07:17 27° NNW 03:07:17 27° NNW 03:09:26 10° N
USA 234 3.6 02:59:34 10° NE 03:05:57 57° NW 03:08:23 37° W
Cosmos 2184 Rocket 4.2 03:15:20 42° SSE 03:17:23 66° E 03:23:30 10° NNE
Resurs 1-4 Rocket 2.3 03:14:01 10° NNE 03:19:15 62° E 03:20:23 49° SSE
IRS-1C 4.0 03:14:05 10° NNE 03:19:27 88° WNW 03:20:14 66° SSW
Cosmos 2181 Rocket 4.0 03:14:26 10° NNW 03:20:47 65° W 03:22:06 53° SW
Cosmos 1825 Rocket 3.6 03:18:43 10° N 03:23:08 69° E 03:23:30 65° ESE
Cosmos 1758 Rocket 4.2 03:20:04 10° N 03:24:18 50° E 03:25:18 41° ESE
ARIANE 5 R/B 2.8 03:20:14 10° NNE 03:25:19 60° E 03:26:38 45° SSE
Meteor 2-13 Rocket 4.3 03:26:01 52° SSW 03:27:39 85° W 03:33:50 10° N
ATLAS 2AS CENTAUR R/B 3.4 03:26:52 34° S 03:30:11 55° ESE 03:38:01 10° NE
ADEOS Rocket 3.1 03:24:07 10° N 03:30:14 58° WNW 03:31:34 47° WSW
SL-08 ROCKET BODY 4.4 03:31:21 50° SW 03:32:49 66° W 03:38:54 10° N
BREEZE M DEB (TANK) 3.9 03:32:30 28° N 03:33:03 31° NNE 03:36:24 10° E
NPP 4.1 03:30:20 10° N 03:35:27 45° WNW 03:36:18 41° W
Cosmos 1331 Rocket 4.2 03:36:02 50° W 03:36:44 54° WNW 03:41:48 10° N
SL-08 R/B 3.8 03:37:31 41° WNW 03:37:31 41° WNW 03:41:21 10° NNW
BREEZE-M DEB (TANK) 4.0 03:36:06 30° SSE 03:37:22 35° ESE 03:47:22 10° ENE
Cosmos 1271 Rocket 4.4 03:36:09 24° SE 03:37:31 29° E 03:41:01 10° NNE
Cosmos 2228 3.7 03:36:56 38° SE 03:38:00 48° E 03:42:08 10° NNE
CZ-2D R/B 2.1 03:33:39 10° NNE 03:39:10 87° WNW 03:40:47 48° SSW
ERS-1 4.4 03:35:43 10° N 03:40:47 79° WNW 03:41:54 55° SSW
Cosmos 2263 Rocket 2.2 03:35:27 10° NNW 03:41:04 62° WSW 03:42:29 46° SSW
UNKNOWN OBJECT B 3.8 03:37:32 10° NNE 03:41:09 39° E 03:42:03 33° SE
NOSS 2-3 (E) 3.7 03:41:49 59° SSW 03:42:44 84° ESE 03:48:04 10° NE
Cosmos 220 Rocket 4.4 03:38:45 10° NNW 03:42:06 45° WNW 03:42:06 45° WNW
Cosmos 2360 Rocket 2.1 03:44:09 48° SW 03:45:47 77° WNW 03:51:28 10° NNE
Cosmos 1980 Rocket 4.5 03:46:14 10° WNW 03:47:59 11° NW 03:49:44 10° NNW
COSMOS 2428 3.4 03:45:35 28° SSE 03:48:18 49° ESE 03:53:49 10° NE
Cosmos 44 3.0 03:45:50 10° NNW 03:50:14 82° ENE 03:54:16 13° SSE
Cosmos 2219 Rocket 3.7 03:46:41 15° SSE 03:50:25 29° ESE 03:55:14 10° NE
DELTA 2 R/B (1) 3.5 03:49:16 47° SW 03:50:49 70° SSE 03:56:22 10° E
Cosmos 2074 Rocket 4.1 03:49:38 40° SW 03:51:54 63° W 03:58:09 10° N
CZ-4C R/B 3.9 03:46:22 10° WNW 03:51:52 26° WSW 03:51:52 26° WSW
OAO 3 Rocket 3.3 03:54:41 49° SSW 03:55:13 51° S 03:59:57 10° E
Cosmos 2058 Rocket 3.0 03:56:09 48° SSW 03:57:23 85° W 04:01:56 10° N
Cosmos 1486 Rocket 3.9 03:52:21 10° NNW 03:57:41 87° WSW 04:01:31 19° SSE
Cosmos 972 Rocket 4.2 03:55:44 31° S 03:57:54 60° ESE 04:02:46 10° NNE
Intelsat 5-1 Rocket 4.3 03:59:39 16° SSE 03:59:51 16° SSE 04:03:59 10° ESE
Cosmos 1953 Rocket 3.6 03:56:17 10° NNW 04:00:42 62° W 04:01:44 47° SSW
Cosmos 1844 Rocket 4.0 03:56:19 10° N 04:01:42 42° ENE 04:07:02 10° SE
Aureole 2 Rocket 4.5 03:59:45 18° SSE 04:02:01 29° ESE 04:05:35 10° NE
MOZ.5/SAFIR/RUBIN 5/SL-8 3.8 04:01:10 21° SSE 04:04:14 82° ENE 04:08:53 10° N
Centaur D AC-29 2.9 04:03:54 24° S 04:04:40 25° SSE 04:12:42 10° ESE
ATLAS 3B R/B 3.9 03:58:41 10° NNW 04:05:02 42° NE 04:11:09 10° ESE
Centaur D AC-25 4.2 03:57:10 10° W 04:07:56 21° S 04:10:00 10° SSE
MOS 1 Rocket 3.1 04:02:07 10° N 04:06:37 69° WNW 04:07:59 42° SW
Cosmos 2333 Rocket 3.6 04:02:59 12° SSE 04:07:29 33° ESE 04:12:30 10° NE
Cosmos 2322 3.9 04:06:52 35° SW 04:09:10 60° WNW 04:14:47 10° NNE
Meteor 2-5 Rocket 3.7 04:03:48 10° N 04:09:29 87° E 04:14:50 12° S
Cosmos 1354 Rocket 4.5 04:04:49 10° NNW 04:10:05 62° ENE 04:15:20 10° SSE
Cosmos 2154 Rocket 4.0 04:07:32 25° S 04:11:29 86° W 04:17:49 10° N
SeaSat 1 4.5 04:09:33 10° ESE 04:13:46 29° NE 04:18:01 10° N
Okean O Rocket 4.0 04:11:22 10° NE 04:14:41 20° E 04:17:58 10° SE
NOSS 2-3 (C) 4.3 04:14:04 32° WSW 04:16:01 51° NW 04:21:20 10° NNE
SL-8 R/B 4.0 04:14:20 29° W 04:16:40 61° NNW 04:21:27 10° NE
Meteor 1-24 Rocket 4.1 04:12:41 10° N 04:18:02 62° E 04:23:32 10° SSE
Iridium 4 Rocket 4.1 04:18:26 28° SW 04:21:06 47° W 04:26:35 10° N
Cosmos 1726 Rocket 4.5 04:21:10 28° W 04:22:06 31° WNW 04:26:03 10° NNW
Cosmos 1707 3.0 04:20:17 10° NNW 04:24:00 46° W 04:25:02 36° SW
Cosmos 1766 3.4 04:22:42 23° S 04:25:02 71° E 04:28:57 10° NNE
Cosmos 2278 Rocket 4.5 04:20:49 10° N 04:25:34 27° ENE 04:30:16 10° ESE
ADEOS 4.2 04:23:03 10° N 04:27:52 39° WNW 04:30:19 25° WSW
SL-16 R/B 4.2 04:26:08 11° W 04:29:04 15° NW 04:32:16 10° NNW
ISS -3.7 04:25:58 10° NW 04:29:14 77° NE 04:32:29 10° SE
Meteor 1-4 Rocket 4.5 04:30:12 15° WNW 04:30:14 15° WNW 04:32:21 10° NW
Cosmos 2341 Rocket 4.0 04:25:23 16° S 04:30:39 84° W 04:37:04 10° N
Cosmos 44 Rocket 3.8 04:27:18 10° NW 04:31:35 34° WSW 04:34:04 20° SSW
Cosmos 1607 4.0 04:26:03 10° NNW 04:32:31 84° WSW 04:38:58 10° SSE
Cosmos 1378 3.5 04:30:46 10° NNW 04:34:18 42° W 04:35:40 29° SW
USA 161 1.9 04:32:20 12° SSE 04:35:07 66° ENE 04:38:04 10° N
Cosmos 2333 4.2 04:34:25 22° SSW 04:38:12 71° WNW 04:43:54 10° NNE
Cosmos 2322 Rocket 4.3 04:35:50 10° WNW 04:38:20 13° NW 04:40:51 10° NNW
H-2A R/B 3.6 04:17:40 10° W 04:38:25 42° SW 04:43:01 10° SE
CZ-2D R/B 4.1 04:38:13 10° N 04:42:18 41° WNW 04:44:34 22° SW
SL-16 R/B 3.6 04:40:35 20° SW 04:42:51 24° W 04:47:49 10° NW
Cosmos 1844 3.8 04:43:53 10° NNW 04:49:31 79° ENE 04:55:10 10° SSE
Cosmos 1503 Rocket 4.1 04:44:35 10° NNW 04:49:47 57° WSW 04:54:59 10° S
Cosmos 2218 Rocket 4.2 04:46:56 10° S 04:53:09 76° E 04:59:30 10° N
Cosmos 1674 4.3 04:53:27 10° N 04:57:03 37° E 05:00:38 10° SSE
Cosmos 1340 Rocket 3.2 04:53:52 10° NNW 04:57:36 40° W 05:01:10 11° SSW
Resurs 1-4 Rocket 3.9 04:55:21 10° NNW 04:58:32 16° WNW 05:01:28 11° W
ADEOS II 2.1 04:53:25 10° NNE 04:58:42 88° ESE 05:03:57 10° SSW
Cosmos 1356 Rocket 3.5 04:55:10 10° N 04:59:13 76° E 05:03:12 10° SSE
ERBS 3.7 04:57:36 11° S 05:00:30 33° SE 05:03:38 10° ENE
Cosmos 1805 3.2 04:56:54 10° S 05:00:42 76° W 05:04:38 10° N
ARIANE 5 R/B 4.3 05:00:50 10° NNW 05:03:55 16° WNW 05:06:58 10° W
PSLV R/B 3.7 05:03:14 10° NNE 05:07:38 80° ESE 05:12:01 10° S
BREEZE-M DEB (TANK) 3.1 05:05:01 12° W 05:07:42 51° NNW 05:13:38 10° ENE
Geosat 4.4 05:09:47 10° NNE 05:14:47 63° ESE 05:19:45 10° SSW
Lacrosse 5 rocket 2.8 05:12:18 10° NNW 05:16:10 42° NE 05:20:15 10° ESE
CZ-2D R/B 4.2 05:16:33 10° NW 05:18:22 12° WNW 05:20:12 10° WNW
Cosmos 1758 3.4 05:15:51 10° SSW 05:19:48 62° W 05:23:49 10° N
ATLAS 2AS CENTAUR R/B 3.9 05:14:21 10° WSW 05:21:31 38° NW 05:29:01 10° NNE
Cosmos 389 Rocket 4.2 05:21:18 10° WSW 05:23:41 18° WNW 05:26:12 10° NNW
Cosmos 1953 2.4 05:23:27 10° SSW 05:27:25 58° W 05:31:24 10° N
CZ-4B R/B 3.2 05:24:04 10° N 05:27:47 48° WNW 05:31:40 10° SSW
Abrixas rocket 2.8 05:25:16 10° SW 05:28:29 50° SE 05:31:43 10° ENE
NOSS 3-4 (A) 3.8 05:22:34 10° SSW 05:28:47 68° ESE 05:35:12 10° NE
NOSS 3-4 (C) 3.9 05:22:39 10° SSW 05:28:52 67° ESE 05:35:16 10° NE
Lacrosse 5 3.0 05:25:41 10° SSW 05:30:26 40° SE 05:35:11 10° ENE
Cosmos 2360 Rocket 4.3 05:28:44 10° WNW 05:30:45 12° NW 05:32:46 10° NNW
Meteor 1-31 Rocket 3.5 05:28:39 10° NNE 05:32:26 54° E 05:36:13 10° S
COSMOS 2428 4.1 05:28:12 10° WSW 05:32:49 24° NW 05:37:26 10° N
Cosmos 2219 Rocket 3.0 05:28:57 10° SW 05:34:11 37° WNW 05:39:27 10° N
Cosmos 1980 3.9 05:29:30 10° SW 05:35:06 61° WNW 05:40:45 10° NNE
PAYLOAD B 4.4 05:30:34 10° N 05:36:07 65° WNW 05:41:38 10° SSW
Cosmos 2237 Rocket 2.3 05:31:25 10° SSW 05:36:59 64° WNW 05:42:35 10° NNE
DELTA 2 R/B (1) 3.7 05:31:43 10° W 05:37:19 80° N 05:42:53 10° E
